Location: Coll
(42.4728°N, 0.7714°E)
Time: 07:07:15
(UTC+00:00)

Cosmos 1400 Rocket - Pass Details

Date: 23 October 2020
Orbit: 521 x 568 km, 81.2° (Epoch: 23 November)

Event Time Altitude Azimuth Distance (km) Brightness Sun altitude
Rises 05:21:04 0° 353° (N) 2,717 6.2 -11.5°
Reaches altitude 10° 05:23:17 10° 358° (N) 1,812 5.4 -11.1°
Maximum altitude 05:27:13 59° 78° (ENE) 624 3.4 -10.3°
Drops below altitude 10° 05:31:04 10° 158° (SSE) 1,771 5.8 -9.6°
Sets 05:33:12 0° 163° (SSE) 2,649 6.7 -9.3°
